Location: Binningen
(47.7924°N, 8.7261°E)
Time: 23:07:49
(UTC+00:00)

Cosmos 1782 - Pass Details

Date: 17 May 2021
Orbit: 537 x 550 km, 82.5° (Epoch: 24 June)

Event Time Altitude Azimuth Distance (km) Brightness Sun altitude
Rises 19:44:30 0° 200° (SSW) 2,701 6.1 -7.0°
Reaches altitude 10° 19:46:42 10° 205° (SSW) 1,811 5.3 -7.3°
Maximum altitude 19:50:36 52° 283° (WNW) 685 3.7 -7.8°
Drops below altitude 10° 19:54:30 10° 0° (N) 1,819 6.1 -8.3°
Sets 19:56:43 0° 6° (N) 2,714 6.9 -8.6°
